EW5589 Weather Reports


time (UTC)temp
F
wind
direction
speed
knots
gust
knots
rain 1hr
in
rain 24hr
in
rain mn
in
humidity
%
barometer
mb
20260505034532 65 187 6.1 12.2 0.00 0.00 0.00 61 1002.0
20260505033010 65 216 10.4 14.8 0.00 0.00 0.00 57 1002.2
20260505031512 64 183 9.6 13.0 0.00 0.00 0.00 55 1002.1
20260505030109 63 162 2.6 3.5 0.00 0.00 0.00 61 1001.8
20260505024557 64 165 1.7 4.3 0.00 0.00 0.00 58 1001.9
20260505023101 63 160 3.5 5.2 0.00 0.00 0.00 59 1001.8
20260505021556 63 165 2.6 4.3 0.00 0.00 0.00 60 1002.1
20260505020059 63 170 0.0 4.3 0.00 0.00 0.00 63 1002.1
20260505014555 63 210 0.0 2.6 0.00 0.00 0.00 66 1002.3
20260505013055 64 210 1.7 2.6 0.00 0.00 0.00 58 1002.2
20260505011609 65 213 1.7 5.2 0.00 0.00 0.00 61 1002.2
20260505010054 65 217 1.7 3.5 0.00 0.00 0.00 56 1002.0
20260505004535 66 214 0.9 3.5 0.00 0.00 0.00 52 1002.0
20260505003034 68 216 4.3 8.7 0.00 0.01 0.00 49 1002.0
20260505001517 67 200 2.6 5.2 0.00 0.01 0.00 55 1002.0
20260505000016 69 219 3.5 5.2 0.00 0.01 0.00 49 1002.0
20260504234600 71 231 2.6 7.0 0.00 0.01 0.00 45 1002.0
20260504233112 71 231 4.3 8.7 0.00 0.01 0.00 41 1002.0
20260504231638 72 271 4.3 8.7 0.00 0.01 0.00 42 1002.1
20260504230038 73 251 5.2 8.7 0.00 0.01 0.00 41 1001.9
20260504224532 73 230 6.1 13.0 0.00 0.01 0.00 38 1001.8
20260504223026 73 255 10.4 17.4 0.00 0.01 0.00 38 1001.9
20260504221524 73 238 8.7 15.6 0.00 0.01 0.00 42 1001.7
20260504220023 73 214 11.3 15.6 0.00 0.01 0.00 40 1001.8
20260504214522 73 224 11.3 19.1 0.00 0.01 0.00 40 1001.8
20260504213021 74 205 12.2 19.1 0.00 0.01 0.00 41 1001.9
20260504211518 73 228 14.8 20.9 0.00 0.01 0.00 41 1002.0
20260504210019 73 220 13.9 20.0 0.00 0.01 0.00 43 1002.1
20260504204606 73 250 13.0 24.3 0.00 0.01 0.00 42 1002.2
20260504203058 73 217 13.9 20.9 0.00 0.01 0.00 43 1002.4
20260504201534 73 219 12.2 22.6 0.00 0.01 0.00 42 1002.5
20260504200033 72 238 8.7 18.2 0.00 0.01 0.00 44 1002.6
20260504194512 71 200 11.3 19.1 0.00 0.01 0.00 46 1002.8
20260504193011 71 228 12.2 21.7 0.00 0.01 0.00 46 1003.2
20260504191611 70 252 12.2 24.3 0.00 0.01 0.00 46 1003.4
20260504190052 70 195 12.2 22.6 0.00 0.01 0.00 48 1003.7
20260504184549 69 196 13.9 20.0 0.00 0.01 0.00 51 1003.7
20260504183047 69 235 16.5 22.6 0.00 0.01 0.00 50 1003.9
20260504181551 68 205 15.6 24.3 0.00 0.01 0.00 52 1004.0
20260504180046 69 203 14.8 22.6 0.00 0.01 0.00 52 1004.2
20260504174541 68 206 14.8 18.2 0.00 0.01 0.00 55 1004.3
20260504173039 68 221 11.3 21.7 0.00 0.01 0.00 54 1004.4
20260504171536 67 202 14.8 23.5 0.00 0.01 0.00 53 1004.5
20260504090104 54 195 8.7 13.9 0.00 0.01 0.00 63 1006.4
20260504081508 53 186 10.4 13.0 0.00 0.01 0.00 65 1006.6
20260504044616 55 211 8.7 14.8 0.00 0.01 0.01 60 1008.2
20260504043046 55 217 10.4 14.8 0.00 0.01 0.01 62 1008.1
20260504041538 56 217 10.4 17.4 0.00 0.01 0.01 61 1008.2
20260504040023 56 199 10.4 14.8 0.00 0.01 0.01 59 1008.1